ANIK B1 (TELESAT-4)

导读

ANIK B1(又名TELESAT-4)是加拿大于1978年12月16日08:00发射的通信卫星,隶属于加拿大Telesat公司的Anik系列通信卫星项目。该卫星主要为加拿大全境提供广播电视转播与通信服务,是加拿大早期通信卫星组网建设的重要组成部分,推动了北美地区卫星通信基础设施发展,在加拿大通信广播事业发展历程中具有标志性意义。

Basic Information
目录编号:
11153
目录名称:
ANIK B1 (TELESAT-4)
国际标识:
1978-116A
轨道中心:
EARTH
卫星名称:
ANIK B1 (TELESAT-4)
卫星全名:
--
卫星状态:
在轨 (已飞行17377 天)
发射日期:
1978-12-16 UTC
国别 :
加拿大 (CA)
星等 :
--
Orbit Information
数据来源 国际轨道数据
星历时间: 2026-07-13T22:53:12+0800
18小时前
查看轨道信息
半长轴: 42293.839km
偏心率: 0.0016903
轨道倾角: 9.456°
近地点辐角 330.372°
升交点赤经 315.921°
平近点角 83.202°
近地点: 35844.212km
远地点: 35987.192km
周期: 1442.698分钟
每日圈数: 0.99813
Detailed Information
使用方式:
暂无
2D Orbit Map
3D Orbit Map
Orbit Altitude Analysis Chart
Orbit Inclination Analysis Chart
Orbit Comprehensive Analysis Chart
View Comprehensive Chart